This is the latest recevied weather packets stored in our database for station/object KC8SWY-15. If no packets are shown the sender has not sent any weather packets the latest 10 day(s).
| Time | Temp. | Humidity | Pressure | Rain* | Wind** | Luminosity | Snow |
|---|---|---|---|---|---|---|---|
| 1777773581 | 3.89° C | 69% | 1018.3 hPa | 0 mm | - | - | - |
| 1777773281 | 3.89° C | 70% | 1018.2 hPa | 0 mm | - | - | - |
| 1777772981 | 4.44° C | 70% | 1018.3 hPa | 0 mm | - | - | - |
| 1777772681 | 4.44° C | 67% | 1018.3 hPa | 0 mm | - | - | - |
| 1777772381 | 4.44° C | 66% | 1018.3 hPa | 0 mm | - | - | - |
| 1777772081 | 5° C | 67% | 1018.2 hPa | 0 mm | - | - | - |
| 1777771781 | 5° C | 62% | 1018.2 hPa | 0 mm | - | - | - |
| 1777771481 | 5.56° C | 57% | 1018.2 hPa | 0 mm | - | - | - |
| 1777771181 | 6.11° C | 58% | 1018.2 hPa | 0 mm | - | - | - |
| 1777770881 | 6.11° C | 59% | 1018.1 hPa | 0 mm | - | - | - |
| 1777770581 | 6.67° C | 59% | 1018.1 hPa | 0 mm | - | - | - |
| 1777770281 | 7.22° C | 55% | 1018.1 hPa | 0 mm | - | - | - |
| 1777769981 | 7.22° C | 47% | 1018.2 hPa | 0 mm | - | - | - |
| 1777769681 | 7.22° C | 43% | 1018.2 hPa | 0 mm | - | - | - |
| 1777769381 | 7.22° C | 43% | 1018.2 hPa | 0 mm | - | - | - |
| 1777769081 | 7.78° C | 42% | 1018.2 hPa | 0 mm | - | - | - |
| 1777768781 | 7.78° C | 42% | 1018.2 hPa | 0 mm | - | - | - |
| 1777768481 | 7.78° C | 41% | 1018.2 hPa | 0 mm | - | - | - |
| 1777768181 | 8.33° C | 40% | 1018.2 hPa | 0 mm | - | - | - |
| 1777767881 | 8.33° C | 40% | 1018.2 hPa | 0 mm | - | - | - |
| 1777767581 | 8.33° C | 39% | 1018.1 hPa | 0 mm | - | - | - |
| 1777767281 | 8.89° C | 38% | 1018.1 hPa | 0 mm | - | - | - |
| 1777766981 | 8.89° C | 37% | 1018.1 hPa | 0 mm | - | - | - |
| 1777766681 | 8.89° C | 37% | 1018.1 hPa | 0 mm | - | - | - |
| 1777766381 | 8.89° C | 37% | 1018.1 hPa | 0 mm | - | - | - |
* Rain latest hour (hover to see other rain measurements)
** Current wind speed in m/s (hover to see current wind gust speed)